Location: Ferchesar
(52.6477°N, 12.4298°E)
Time: 06:25:54
(UTC+02:00)

Transit 4A - Pass Details

Date: 03 March 2021
Orbit: 869 x 976 km, 66.8° (Epoch: 12 April)

Event Time Altitude Azimuth Distance (km) Brightness Sun altitude
Rises 15:47:57 0° 306° (NW) 3,632 11.2 16.5°
Reaches altitude 10° 15:51:06 10° 320° (NW) 2,667 10.4 16.1°
Maximum altitude 15:55:59 24° 13° (NNE) 1,846 9.2 15.5°
Drops below altitude 10° 16:00:46 10° 65° (ENE) 2,604 9.7 14.9°
Sets 16:03:48 0° 80° (E) 3,525 10.4 14.5°
